#timestamp,LO_Frequency,Hit,StdDev 
1627286415.0,286047001.8,N
1627286415.9,286047001.8,N
1627286435.8,286047001.9,N
1627286455.6,286047001.5,N
1627286475.4,286047002.4,N
1627286495.3,286047001.5,N
1627286515.1,286047000.2,N
1627286535.9,286046999.9,N
1627286555.7,286046998.5,N
1627286575.5,286046998.3,N
1627286595.4,286046999.1,N
1627286615.2,286046997.3,N
1627286635.0,286046997.8,N
1627286635.9,286046997.8,N
1627286655.8,286046997.4,N
1627286675.6,286046997.9,N
1627286695.5,286046997.4,N
1627286715.3,286046997.7,N
1627286735.1,286046997.6,N
1627286755.9,286046997.4,N
1627286775.7,286046997.0,N
1627286795.6,286046996.6,N
1627286815.0,286046999.0,N
1627286816.0,286046999.0,N
1627286835.8,286046998.8,N
1627286855.6,286046999.3,N
1627286875.5,286046998.7,N
1627286895.3,286046998.9,N
1627286915.1,286046999.4,N
1627286935.9,286046999.1,N
1627286955.7,286046999.4,N
1627286975.6,286046998.9,N
1627286995.4,286046998.4,N
1627287015.2,286046998.7,N
1627287035.1,286046999.0,N
1627287036.0,286046999.0,N
1627287055.8,286046999.4,N
1627287075.6,286046999.3,N
1627287095.5,286046999.4,N
1627287115.3,286046999.2,N
1627287135.2,286046999.3,N
1627287155.9,286046996.5,Y
1627287175.7,286047000.5,P
1627287195.6,286047000.8,N
1627287215.4,286047000.0,N
1627287235.2,286047000.5,N
1627287255.1,286046999.9,N
1627287256.0,286046999.9,N
1627287275.8,286047000.3,N
1627287295.7,286047000.5,N
1627287315.5,286047001.0,N
1627287335.3,286047000.9,N
1627287355.2,286047000.7,N
1627287375.0,286047000.2,N
1627287375.9,286047000.2,N
1627287395.7,286047001.0,N
1627287415.6,286047001.2,N
1627287435.4,286046998.2,N
1627287455.3,286046998.1,N
1627287475.1,286046998.2,N
1627287476.0,286046998.2,N
1627287495.8,286046998.5,N
1627287515.7,286047000.8,N
1627287535.5,286046998.6,N
1627287555.4,286046998.8,N
1627287575.2,286046999.1,N
1627287595.0,286046998.6,N
1627287595.9,286046998.6,N
1627287615.8,286046999.0,N
1627287635.6,286047011.9,Y
1627287655.5,286047000.8,P
1627287675.3,286047000.5,N
1627287695.1,286047000.0,N
1627287715.9,286047001.0,N
1627287735.7,286047000.6,N
1627287755.6,286047000.9,N
1627287775.6,286046998.1,Y
1627287795.4,286046998.2,P
1627287815.2,286046996.5,P
1627287835.1,286046999.3,N
1627287836.0,286046999.3,N
1627287855.8,286046996.5,N
1627287875.7,286046996.7,N
1627287895.5,286046996.9,N
1627287915.3,286046999.2,N
1627287935.2,286046999.3,N
1627287955.0,286046996.8,N
1627287955.9,286046996.8,N
1627287975.7,286046999.6,N
1627287995.6,286046996.7,N
1627288015.4,286046996.5,N
1627288035.3,286046999.0,N
1627288055.1,286046999.0,N
1627288075.9,286046996.9,N
1627288095.7,286046999.0,N
1627288115.5,286046996.6,N
1627288135.4,286046998.4,N
1627288155.2,286046998.8,N
1627288175.0,286046998.7,N
1627288175.9,286046998.7,N
1627288195.8,286046998.4,N
1627288215.6,286046998.1,N
1627288235.5,286047000.7,N
1627288255.4,286047001.1,N
1627288275.2,286046999.0,N
1627288295.0,286046998.4,N
1627288295.9,286046998.4,N
1627288315.8,286046999.3,N
1627288335.6,286046999.3,N
1627288355.5,286046996.9,N
1627288375.3,286046999.4,N
1627288395.2,286046999.5,N
1627288415.9,286046998.9,N
1627288435.7,286046999.2,N
1627288455.6,286046996.5,Y
1627288475.4,286047001.1,P
1627288495.3,286047000.3,N
1627288515.1,286047000.5,N
1627288516.0,286047000.5,N
1627288535.8,286046999.8,N
1627288555.7,286047002.8,Y
1627288575.5,286047000.9,P
1627288595.3,286046998.5,P
1627288615.2,286047000.7,N
1627288635.0,286047000.4,N
1627288635.9,286047000.4,N
1627288655.8,286046998.1,N
1627288675.6,286047000.6,N
1627288695.4,286046999.7,N
1627288715.3,286047000.0,N
1627288735.1,286046999.7,N
1627288755.9,286047002.4,N
1627288775.7,286047000.2,N
1627288795.5,286047002.7,N
1627288815.4,286047002.0,N
1627288835.2,286047002.6,N
1627288855.0,286047002.2,N
1627288855.9,286047002.2,N
1627288875.8,286047002.2,N
1627288895.6,286047002.8,N
1627288915.5,286047000.4,N
1627288935.3,286046999.7,N
1627288955.1,286047002.8,N
1627288975.9,286047002.7,N
1627288995.7,286047000.3,N
1627289015.5,286047000.9,N
1627289035.4,286047000.1,N
1627289055.2,286047000.0,N
1627289075.1,286047000.8,N
1627289076.0,286047000.8,N
1627289095.8,286047000.7,N
1627289115.6,286047000.2,N
1627289135.5,286046999.7,N
1627289155.3,286047002.3,N
1627289175.1,286047000.1,N
1627289195.9,286047000.3,N
1627289215.7,286046999.8,N
1627289235.6,286047000.6,N
1627289255.4,286047002.4,N
1627289275.2,286047002.6,N
1627289295.1,286047002.4,N
1627289296.0,286047002.4,N
1627289315.8,286047002.4,N
1627289335.6,286047000.2,N
1627289355.5,286047002.7,N
1627289375.3,286047002.7,N
1627289395.2,286047001.2,N
1627289415.9,286046999.1,N
1627289435.7,286046999.2,N
1627289455.6,286046997.7,N
1627289475.4,286046997.8,N
1627289495.2,286046997.9,N
1627289515.1,286046994.9,Y
1627289516.0,286046994.9,P
1627289535.8,286046995.4,N
1627289555.7,286046997.6,N
1627289575.5,286046995.3,N
1627289595.3,286046995.5,N
1627289615.2,286046995.2,N
1627289635.0,286046996.1,N
1627289635.9,286046996.1,N
1627289655.8,286046995.7,N
1627289675.6,286046995.5,N
1627289695.4,286046995.3,N
1627289715.3,286046995.8,N
1627289735.1,286046995.6,N
1627289755.8,286046997.2,N
1627289775.7,286046996.9,N
1627289795.5,286046997.6,N
1627289815.4,286046997.9,N
1627289835.2,286046996.6,N
1627289855.0,286046998.0,N
1627289855.9,286046998.0,N
1627289875.8,286046995.2,Y
1627289895.6,286046998.1,P
1627289915.4,286047001.2,N
1627289935.3,286046998.1,N
1627289955.1,286046998.1,N
1627289975.9,286046998.1,N
1627289995.7,286047000.8,N
